Regional Weather Roundup
Issued by NWS

Home | Current Version | Previous Version | Text Only | Print | Product List | Glossary On
Versions: 1 2 3 4 5 6 7 8 9 10 11 12 13 14 15 16 17 18 19 20 21 22 23 24 25 26 27 28
000
ASUS45 KBOI 190710
RWRID
WEATHER ROUNDUP FOR IDAHO
NATIONAL WEATHER SERVICE BOISE ID
100 AM MDT SAT APR 19 2014

NOTE: "FAIR" INDICATES FEW OR NO CLOUDS BELOW 12000 FEET
WITH NO SIGNIFICANT WEATHER AND/OR OBSTRUCTIONS TO VISIBILITY

IDZ012-014-190800-
SOUTHWEST IDAHO


CITY           SKY/WX    TMP DP  RH WIND       PRES   REMARKS
BOISE          MOCLDY    46  26  45 SE5       29.98S
CALDWELL       MOCLDY    43  25  49 CALM      29.99F
MOUNTAIN HOME  PTCLDY    47  21  35 NW6       29.98S
$$

IDZ016-017-190800-
SOUTHCENTRAL IDAHO


CITY           SKY/WX    TMP DP  RH WIND       PRES   REMARKS
BURLEY         CLEAR     38  30  73 SW9       30.00S WCI  31
JEROME         CLEAR     42  25  50 SE6       30.01S
TWIN FALLS     CLEAR     41  27  57 S12       30.01R
$$

IDZ019>023-190800-
SOUTHEAST IDAHO


CITY           SKY/WX    TMP DP  RH WIND       PRES   REMARKS
IDAHO FALLS    PTCLDY    42  22  44 S10       30.00R
POCATELLO      CLEAR     44  15  31 SW8       30.01R
REXBURG        MOCLDY    44  18  35 S9        29.99R
$$

IDZ006-010-011-018-031-032-190800-
CENTRAL IDAHO MOUNTAINS


CITY           SKY/WX    TMP DP  RH WIND       PRES   REMARKS
MCCALL         PTCLDY    28  20  71 CALM      30.00S
HAILEY         PTCLDY    43  18  36 N8        30.02S
STANLEY          N/A     26  16  65 CALM      30.05S
SALMON         CLEAR     34  18  51 CALM      30.02R
CHALLIS        CLOUDY    35  11  36 CALM      30.02S
$$

IDZ002-004-006-007-026-190800-
NORTHERN IDAHO


CITY           SKY/WX    TMP DP  RH WIND       PRES   REMARKS
LEWISTON       CLEAR     43  26  51 E7        29.99F
LOWELL           N/A     38  34  85 VRB3      30.07S
COEUR D`ALENE  CLEAR     37  28  70 S6        29.99S WCI  33
MULLAN PASS    CLEAR     26  22  84 S7        29.95S WCI  18
$$



USA.gov is the U.S. government's official web portal to all federal, state and local government web resources and services.